Regional Weather Roundup
Issued by NWS Kansas City/Pleasant Hill, MO

Home | Current Version | Previous Version | Text Only | Print | Product List | Glossary On
Versions: 1 2 3 4 5 6 7 8 9 10 11 12 13 14 15 16 17 18 19 20 21 22 23 24 25 26 27
000
ASUS43 KEAX 222010
RWREAX

WEATHER ROUNDUP FOR EASTERN KANSAS AND NORTHWEST MISSOURI
NATIONAL WEATHER SERVICE KANSAS CITY/PLEASANT HILL MO
300 PM CDT SAT JUL 22 2017

KSZ040-057-103>105-MOZ028-029-037-043-222100-
...KANSAS CITY METROPOLITAN AREA...

CITY           SKY/WX    TMP DP  RH WIND       PRES   REMARKS
K.C. INTL      MOSUNNY   97  76  50 NW3       29.83S HX 110
K.C. DOWNTOWN  SUNNY     97  75  49 W8        29.80S HX 109
LEES SUMMIT    SUNNY     97  74  47 W13G21    29.83S HX 108
OLATHE - IXD   SUNNY     97  72  44 S14       29.82F HX 105
OLATHE - OJC   SUNNY     94  75  54 SW10      29.83F HX 105
LAWRENCE       SUNNY    100  73  41 S9        29.81S HX 110

$$

MOZ001>008-011>017-020>025-030>033-038>040-044>046-053-054-222100-
...NORTHERN AND CENTRAL MISSOURI...

CITY           SKY/WX    TMP DP  RH WIND       PRES   REMARKS
ST. JOSEPH     SUNNY     96  81  61 NW7       29.81S HX 118
MOSBY          CLEAR     95  72  46 N5        29.81S HX 103
WARRENSBURG    SUNNY     97  70  41 S14G20    29.81S HX 103
WHITEMAN AFB   MOSUNNY   99  73  43 W17       29.80F HX 108
CLINTON        SUNNY     95  77  55 SW12      29.83S HX 109
SEDALIA        SUNNY     97  78  54 SW14      29.83F HX 114
WARSAW         NOT AVBL
CHILLICOTHE      N/A     95  80  61 CALM      29.81F HX 114
KIRKSVILLE     SUNNY     94  76  55 SW8       29.82S HX 106

$$

MOZ041-047>049-056>058-063>065-088>090-097-222100-
...EASTERN AND SOUTHERN MISSOURI...

CITY           SKY/WX    TMP DP  RH WIND       PRES   REMARKS
ST. LOUIS INTL MOSUNNY  104  69  32 S20G30    29.78F HX 111
SPIRIT OF STL  MOSUNNY  103  70  34 SW16G25   29.76F HX 111
COLUMBIA       SUNNY    101  72  39 W20G26    29.81F HX 110
JEFFERSON CITY SUNNY     99  73  43 SW14G23   29.79F HX 109
ROLLA          SUNNY     96  75  50 S15       29.86F HX 108
OSAGE BEACH    SUNNY    101  72  39 W8        29.84F HX 110
SPRINGFIELD    SUNNY     97  71  42 SW14      29.90F HX 104
BRANSON        MOSUNNY   95  70  43 S6        29.93F HX 101
JOPLIN         SUNNY    101  73  40 S15       29.87F HX 112
WEST PLAINS    SUNNY     95  70  44 S9        29.92F HX 101

$$

IAZ060-094-KSZ022-034>040-054-083-096-NEZ052-066-093-222100-
...KANSAS...SOUTHEAST NEBRASKA AND IOWA...

CITY           SKY/WX    TMP DP  RH WIND       PRES   REMARKS
TOPEKA         SUNNY    100  73  41 SW6       29.80S HX 110
MANHATTAN      SUNNY    103  67  31 CALM      29.81S HX 108
EMPORIA        SUNNY    101  72  39 S12       29.83F HX 110
CHANUTE        SUNNY    102  70  35 S14G25    29.84F HX 110
WICHITA        MOSUNNY  104  62  25 VRB3      29.83F HX 106
OMAHA          PTSUNNY   89  74  60 N13       29.86R HX  98
LINCOLN        CLOUDY    92  74  55 NE12      29.88S HX 101
FALLS CITY     SUNNY     94  81  66 N10       29.82  HX 115
LAMONI         PTSUNNY   97  78  54 N12G18    29.81S HX 114
DES MOINES     MOSUNNY   90  73  57 N9        29.82F HX  98

$$





USA.gov is the U.S. government's official web portal to all federal, state and local government web resources and services.